Tracking 19564 objects as of 19-Mar-2019
HD Live streaming from Space Station
objects crossing your sky now

ATLAS CENTAUR R/B

Track ATLAS CENTAUR R/B now!


NORAD ID: 10025
Int'l Code: 1977-041B
Perigee: 573.0 km
Apogee: 36,222.4 km
Inclination: 21.4 °
Period: 646.6 minutes
Semi major axis: 24768 km
RCS: 18.6679 m2 (large)
Launch date: May 26, 1977
Source: United States (US)
Launch site: AIR FORCE EASTERN TEST RANGE (AFETR)

Note: This is a ROCKET BODY
aabbcc
Your satellite tracking list
Your tracking list is empty




NASA's NSSDC Master Catalog

Two Line Element Set (TLE):
1 10025U 77041B   19077.33017152 -.00000171 +00000-0 -48549-4 0  9998
2 10025 021.4047 100.1326 7196451 289.4066 081.2178 02.22713748338950
Source of the keplerian elements: AFSPC